STARLINK-5364, 55491

Orbit data source: Space-Track

STARLINK-5364, 55491 is a payload satellite owned by SpaceX/Seattle (US) in LEO that was launched on Thu, 02 Feb 2023 UTC via an FALCON 9 launch vehicle from the Air Force Eastern Test Range (AFETR). Payload-class satellites include a variety of spacecraft equipped with specific instruments for various scientific and technological missions. These include communications satellites like Starlink; space stations such as the ISS; scientific satellites like the Hubble; Earth observation satellites from companies like Planet Labs, Umbra, and HawkEye 360; GPS; miniature CubeSats for education and research; and military/defense satellites.

Loading next visibility...
Identifier
55491, 2023-015AU
Orbit
LEO
Country
Flag of USUS
Related business
Manufacturer
SpaceX/Seattle
Mission
Operational Commercial Communications
Bus & Motor
STARLINK, Unknown motor
Mass
305 kg wet, ~290 kg dry
Launch date (UTC)
2023-02-02 (4 years ago)
Launch vehicle
FALCON 9
Launch site
Air Force Eastern Test Range (AFETR)
Object type
Payload
Rocket body
Debris
Shape & HBR
Box + 1 Pan, 10.1 m
Radar Cross Section
13.562 m², Large (>1 m²)

Expand to show TLE details & history
Last TLE update: 6 hours ago

TLE from 6 hours ago
0 STARLINK-5364
1 55491U 23015AU  26258.43117522  .00000052  00000-0  11430-4 0  9993
2 55491  43.0035 329.8488 0001240 272.6750  87.3959 15.27578201199827
Epoch: 2026-09-15T10:20Z
TLE epoch observation values (Epoch: 2026-09-15T10:20:53.539Z)
Latitude
-0.00009°
Longitude
-179.77159°
Altitude
482.792 km
Speed
7.626 km/s
True Right ascension
21h 59m 23s
True Declination
0° 00' 00"
Sunlit
Object was in full shadow at epoch
Visualization orbit readout
Latitude
Unknown
Longitude
Unknown
Altitude
Unknown
Speed
Unknown
Apparent Right ascension
Unknown
Apparent Declination
Unknown
Sunlit
N/A
Visualization observer readout
Local Sidereal Time
09:25:57
Azimuth
Unknown
Elevation
Unknown
Doppler factor
Unknown
Orbital elements
Apogee altitude
485.85 km
Perigee altitude
484.148 km
Semi-major axis
6,863.136 km
Eccentricity
0.00012
Inclination
43.0035°
RAAN
329.8488°
Arg. of periapsis
272.675°
True anomaly
87.41009°
Mean anomaly
87.3959°
Eccentric anomaly
87.403°
Mean motion
3.81733 °/min
Orbital period
94.31 mins
BSTAR
0.00001143
Loading maneuver chart data...
Computing Atmospheric mass density...
Loading historical data...
Loading historical data...
Loading historical data...
Loading historical data...
Loading historical data...
Loading historical data...
Loading historical data...

Documentation

Showing up to 5 results
|